Powrót do katalogu

SL-12 R/B

AUX MOTOR

AktywnyHEO
NORAD 32281·ROCKET BODY·🇷🇺 Russia

Wystrzelony Oct 26, 2007 z Baikonur Cosmodrome

Loading…

Następne Przeloty (najbliższe 24 godziny)

TLE

ŚwieżeSource: Space-Track

Epoka: Sep 14, 2026, 07:42 UTC

1 32281U 07052G   26257.32146792  .00000066  00000-0  17937-3 0  9998
2 32281  65.0256 267.3267 5727914 197.4336 129.5790  4.23763157291691

Śledź SL-12 R/B w czasie rzeczywistym z AllMySat

Download on the App Store